COSMOS 2520 (42907 NORAD) Tracking and Keplerian Element Data

This shows tracking and keplerian element data for the satellite.

Feedback or suggestion? Click here.




ElementValue
Catalog42907
NameCOSMOS 2520
Epoch Orbit1508
Epoch Day268.20396559
Epoch Year2021
RAAN109.8472
Inclination0.0234
Eccentricity0.0001116
Argument of Perigee245.6839
Mean Anonmoly127.1393
Mean Motion1.00259151
Decay Rate1.34E-06
L11 42907U 17046A 21268.20396559 .00000134 00000-0 00000+0 0 9995
L22 42907 0.0234 109.8472 0001116 245.6839 127.1393 1.00259151 15084

Live tracking and technical data element details for COSMOS 2520 (NORAD 42907). COSMOS 2520 can be tracked NOW for your location showing map with azimuth and elevation plus other details from your city location.

Track the satellite on the map from your city or location and see movement details for azimuth, elevation, latitude, longitude, range, height, and movement on the map or in text.







IsCatalogInMostPopularTable: catalog: 42907, numindb: 639
Update: records affected: 1



GetName: 42907 COSMOS 2520

Hit Count: updated at: Mon, 27 Sep 2021 00:35:59 GMT